Temperature
13 13 13 13 13 13 13 13 14 14 15 14 14 13 13 14 14 14 14 15 15 15 15 15 15 16 16 16 16 16 16 16 16 16 16 16 16 16
13 13 13 13 13 13 13 13 13 13 14 14 13 13 13 13 14 14 14 14 15 15 15 15 15 15 15 15 16 16 16 16 16 16 16 16 16 16
13 13 13 13 12 12 12 12 12 13 13 13 13 13 13 13 13 14 14 14 14 14 15 15 15 15 15 15 15 15 15 16 16 16 16 16 16 16
13 13 12 12 12 12 12 12 12 12 12 12 13 12 12 12 13 13 13 13 14 14 14 14 14 15 15 15 15 15 15 15 15 15 15 15 15 16
12 12 12 12 12 12 12 12 12 12 12 12 12 12 12 12 12 12 13 13 13 13 14 14 14 14 14 14 15 15 15 15 15 15 15 15 15 15
12 12 12 12 12 11 11 11 11 11 11 11 11 11 11 11 11 12 12 12 12 13 13 13 13 14 14 14 14 14 14 14 15 15 15 15 15 15
12 12 12 12 12 11 11 11 11 11 11 11 11 11 11 11 11 11 11 11 12 12 12 12 13 13 13 13 14 14 14 14 14 14 14 14 15 15
11 11 11 11 11 11 11 11 11 10 10 10 10 11 11 11 10 10 10 10 11 11 11 12 12 12 12 13 13 13 14 14 14 14 14 14 14 14
11 11 11 10 11 10 10 10 10 10 10 10 10 10 10 10 10 10 10 10 10 10 10 11 11 11 12 12 13 13 13 13 14 14 14 14 14 14
10 10 10 10 10 10 10 9 9 9 10 9 9 9 9 9 9 9 9 9 10 10 10 10 11 11 11 12 12 12 13 13 13 13 13 13 13 13
10 10 10 10 10 10 9 9 9 9 9 9 9 9 9 9 9 9 8 8 9 9 10 10 10 10 10 11 11 12 12 12 12 13 13 13 13 13
9 9 10 10 9 9 9 8 8 9 9 9 9 9 9 9 9 8 8 8 8 8 9 9 9 9 9 10 11 11 11 11 11 12 12 12 13 12
9 9 9 9 9 9 9 8 8 8 8 8 8 8 8 8 8 8 8 7 7 7 8 8 8 8 8 9 9 10 10 10 11 11 11 12 12 12
9 8 8 9 9 9 8 8 8 8 7 7 8 8 8 8 7 7 7 7 7 7 7 7 7 7 7 8 8 9 9 9 10 10 10 11 11 11
8 8 8 8 8 8 8 8 8 7 7 7 7 7 7 7 7 7 7 6 6 6 6 6 6 6 6 7 7 8 8 9 9 9 10 10 10 11
8 8 8 8 8 8 7 7 7 7 6 6 6 6 6 6 6 6 6 6 6 6 6 6 6 6 6 6 7 7 7 8 8 9 9 9 10 10
7 7 7 7 7 7 7 7 6 6 6 6 6 6 5 5 5 5 5 5 5 5 5 6 6 6 6 6 6 7 7 7 8 8 8 9 9 9
7 6 6 6 6 6 6 6 6 6 5 5 5 5 5 5 5 5 4 4 4 4 5 5 5 5 5 6 6 6 6 7 7 8 8 8 8 9
6 6 6 6 6 6 6 5 5 5 5 5 5 4 4 4 4 4 4 4 4 4 4 4 4 4 4 5 6 6 6 6 6 7 7 7 8 8
6 6 6 6 5 5 5 5 5 5 4 4 4 4 4 4 4 4 4 3 3 3 3 4 4 4 4 4 5 5 5 6 6 6 6 7 7 8
6 6 5 5 5 5 5 5 4 4 4 4 3 3 3 3 3 3 3 3 3 3 3 3 3 3 3 3 4 5 5 5 5 5 6 6 6 7
6 5 5 5 5 5 4 4 4 4 3 3 3 3 3 3 3 3 2 2 2 2 2 3 3 3 3 3 4 4 5 5 5 5 5 6 6 6
5 5 5 5 4 4 4 4 3 3 3 3 3 3 2 2 2 2 2 2 2 2 2 2 2 2 3 3 3 4 4 4 5 5 5 5 6 6
Wind_Speed
6 6 5 5 5 4 4 4 5 4 4 5 5 7 8 7 9 8 7 7 6 5 4 4 4 4 4 4 5 6 6 7 8 9 11 13 13 13
5 6 6 5 5 4 4 4 4 4 4 5 5 6 8 8 8 8 8 6 5 5 5 5 6 6 6 6 6 7 7 8 9 10 11 12 13 14
6 7 7 7 5 4 4 4 4 4 4 5 5 6 7 8 8 9 8 7 5 4 6 6 7 7 7 7 7 7 8 8 9 9 11 12 13 13
6 6 6 5 6 6 5 5 4 5 5 6 6 6 8 8 8 8 7 7 7 6 6 7 8 8 9 10 10 10 10 10 10 10 11 12 13 14
5 6 6 6 6 5 5 5 5 5 5 5 6 6 6 7 8 7 7 7 8 7 7 7 8 9 10 11 12 12 12 12 12 12 12 12 13 14
4 5 6 6 7 7 5 6 6 6 5 6 6 6 6 7 7 7 8 7 7 8 8 7 7 9 11 12 12 13 13 13 14 14 14 13 13 13
4 4 5 6 7 7 6 7 7 6 6 6 6 7 7 7 8 8 9 9 8 6 7 7 7 7 8 10 12 13 13 14 14 14 14 14 14 14
4 4 4 4 4 3 4 6 7 7 8 7 7 8 9 9 8 8 9 9 9 6 8 9 8 8 8 9 8 9 12 13 14 15 15 15 15 16
4 5 4 4 6 7 5 5 6 5 7 9 10 10 11 10 11 11 11 11 11 10 10 11 10 10 9 10 10 11 13 14 15 15 16 16 16 16
4 5 5 6 7 9 9 8 8 7 7 8 9 10 11 11 11 12 13 13 12 10 9 11 11 10 9 10 11 13 14 15 15 16 16 16 16 17
4 5 6 6 7 9 9 9 9 8 7 8 11 13 14 14 12 10 10 10 11 11 9 10 11 11 11 10 10 12 14 16 16 16 16 16 16 16
4 4 3 5 8 10 9 9 10 10 11 11 10 11 11 10 9 10 10 10 11 11 9 8 11 10 10 9 8 9 10 12 15 17 17 17 17 13
5 5 4 4 8 10 11 9 10 12 12 11 10 10 10 9 9 9 9 10 11 12 11 10 11 12 12 11 11 10 10 9 10 12 15 17 18 15
6 6 5 7 10 11 10 9 12 12 9 9 9 9 9 10 10 11 13 13 13 15 15 14 12 12 13 14 13 11 10 10 10 10 10 11 15 18
6 6 9 11 11 10 8 10 11 9 9 9 10 10 10 10 11 10 12 13 14 16 16 16 13 12 13 14 13 12 12 11 11 10 10 10 10 10
7 7 9 11 10 9 10 8 8 8 9 10 10 10 10 10 10 10 11 11 11 13 14 15 14 13 13 14 13 13 13 11 10 10 10 10 10 11
8 8 8 8 8 8 8 8 8 8 9 9 10 11 11 11 11 11 10 11 12 13 13 11 12 12 13 14 13 13 13 12 11 11 10 11 11 11
8 8 9 9 9 9 9 9 9 9 10 10 11 11 11 12 12 12 11 12 12 13 13 12 11 12 12 12 12 14 12 12 11 11 11 11 11 11
8 9 9 9 9 10 10 10 10 10 10 11 11 12 12 12 12 13 12 12 12 13 13 12 11 11 13 14 13 11 12 12 11 11 11 11 11 11
8 9 9 10 10 10 10 11 11 11 11 11 12 12 12 13 13 13 13 14 13 14 14 13 12 12 13 15 15 14 14 13 11 11 10 9 9 8
9 10 10 10 10 11 11 11 12 12 12 12 12 13 13 13 13 14 14 15 14 14 15 14 14 14 14 13 13 14 13 12 12 11 10 9 8 8
10 10 11 11 11 11 11 11 12 12 13 13 13 13 13 13 14 15 15 14 14 14 16 14 15 14 13 14 15 15 14 11 9 10 11 12 10 10
11 11 11 11 11 11 12 13 14 13 13 13 13 13 13 13 13 14 15 15 14 15 15 15 14 13 13 13 14 13 14 12 8 7 8 8 10 11
Wind_Direction
34 34 27 26 17 14 8 1 351 348 5 15 5 7 0 2 356 348 350 10 346 327 313 300 282 269 259 252 253 255 251 244 233 223 217 218 219 216
34 32 25 21 17 15 7 3 358 345 342 354 352 351 354 348 358 347 343 335 314 317 312 297 277 268 260 252 247 246 245 241 236 230 223 221 221 220
37 37 31 19 15 15 9 4 1 348 333 336 345 347 346 345 347 343 336 328 329 332 313 298 281 271 262 255 248 244 242 240 235 231 227 224 223 222
33 30 26 25 20 13 4 2 1 349 335 332 334 345 343 343 341 335 334 333 325 330 312 293 281 271 263 256 249 245 242 239 236 233 232 230 226 223
27 20 17 18 14 14 4 0 353 348 337 325 333 338 331 339 335 331 331 330 322 318 301 283 276 271 267 259 249 243 241 240 236 234 235 235 232 227
21 17 12 10 5 360 356 353 346 340 336 329 327 330 329 335 330 330 327 327 320 318 314 306 290 273 262 256 251 247 243 241 238 236 235 234 232 231
14 13 20 18 11 359 350 344 340 333 330 326 324 325 326 329 330 325 318 316 312 309 313 307 303 293 279 256 246 245 242 240 240 238 235 232 230 231
358 354 359 0 356 327 328 325 323 322 325 319 316 316 321 324 323 315 313 311 308 309 305 300 295 290 285 277 268 251 245 241 240 240 237 234 231 229
343 344 345 348 337 337 322 288 287 280 290 302 306 311 314 319 316 310 306 302 298 301 301 293 289 283 282 279 267 258 251 245 242 240 238 236 233 230
333 333 330 336 350 339 325 320 317 316 308 298 303 306 309 311 307 301 299 295 291 286 282 286 289 287 287 284 271 258 254 248 244 242 239 235 231 229
326 331 329 329 359 334 317 315 314 313 301 285 288 289 293 292 292 294 294 294 294 295 289 283 289 291 288 283 273 253 248 248 244 240 238 234 229 228
318 318 350 334 337 326 315 314 312 316 316 308 297 291 291 292 279 282 291 292 294 294 293 291 291 294 290 282 279 277 265 253 244 239 235 231 226 229
309 311 328 347 321 314 306 305 312 312 305 303 302 302 302 302 300 295 291 288 289 287 292 293 289 288 283 284 284 278 272 267 257 248 236 230 224 222
300 305 320 327 311 304 300 304 302 298 296 298 300 302 304 305 304 303 297 291 285 285 287 285 281 281 282 282 282 280 277 271 263 258 252 237 226 224
291 306 302 298 295 290 283 289 291 292 297 298 299 301 304 303 304 302 298 295 292 290 287 284 279 278 275 275 278 277 277 274 265 258 254 247 240 233
282 282 264 264 264 274 285 286 289 294 297 296 297 299 300 300 299 299 298 298 296 295 292 287 280 276 276 274 272 273 271 269 264 261 256 254 248 240
304 294 294 296 297 297 298 299 298 296 294 294 296 298 298 298 299 299 296 296 294 295 298 296 289 282 276 273 270 267 267 268 265 261 260 256 252 243
289 285 288 291 294 298 299 299 298 298 298 298 296 295 295 297 298 297 294 292 292 293 296 297 296 294 286 278 260 265 266 267 268 262 257 256 255 251
273 279 284 287 290 293 294 295 296 297 296 294 293 292 292 293 294 294 293 292 291 292 293 294 290 288 284 283 279 260 266 270 269 264 257 253 254 251
270 276 281 284 287 289 291 291 293 294 293 291 291 291 290 289 291 291 292 292 293 293 293 291 285 282 281 282 284 281 262 260 264 265 262 259 263 262
274 276 278 281 283 285 287 288 289 289 289 289 288 287 287 289 290 290 290 291 290 289 289 289 288 286 284 282 276 275 271 255 254 257 261 258 258 253
274 276 277 278 280 282 284 285 287 287 288 286 287 286 286 287 288 288 289 289 289 287 289 290 289 286 280 275 273 275 278 273 268 257 247 250 249 242
273 276 278 279 279 281 282 283 285 286 286 287 288 287 286 285 285 285 286 286 287 288 289 291 291 286 281 275 273 272 271 272 270 266 267 263 246 244
Height
1559 1558 1557 1556 1554 1554 1553 1552 1552 1550 1549 1548 1547 1545 1543 1542 1540 1540 1539 1538 1537 1537 1537 1537 1537 1538 1538 1538 1539 1539 1541 1542 1543 1544 1546 1547 1549 1550
1559 1558 1557 1557 1555 1554 1553 1552 1552 1551 1550 1549 1547 1545 1543 1542 1540 1538 1537 1536 1535 1535 1535 1535 1535 1535 1535 1535 1536 1537 1537 1538 1540 1541 1542 1544 1545 1547
1561 1559 1558 1556 1556 1555 1553 1553 1552 1551 1549 1548 1547 1545 1542 1541 1539 1537 1536 1535 1534 1533 1532 1532 1532 1532 1532 1532 1533 1533 1534 1535 1536 1537 1538 1540 1541 1543
1561 1560 1558 1557 1555 1555 1553 1552 1551 1550 1549 1547 1546 1544 1541 1539 1537 1535 1534 1533 1532 1530 1529 1529 1528 1528 1528 1529 1529 1529 1530 1531 1532 1533 1534 1535 1537 1538
1561 1560 1559 1557 1556 1554 1553 1552 1550 1549 1547 1546 1544 1542 1540 1538 1535 1534 1533 1530 1529 1528 1526 1525 1525 1524 1524 1524 1525 1525 1526 1526 1527 1528 1529 1530 1531 1533
1560 1559 1558 1557 1555 1554 1552 1551 1549 1548 1546 1545 1543 1541 1539 1536 1534 1532 1530 1528 1526 1525 1523 1522 1521 1520 1519 1519 1519 1520 1520 1521 1522 1523 1524 1525 1526 1527
1560 1559 1557 1555 1554 1552 1551 1549 1548 1547 1545 1543 1541 1540 1538 1535 1533 1530 1528 1525 1523 1522 1520 1519 1517 1516 1515 1514 1514 1514 1515 1515 1516 1517 1518 1519 1520 1521
1559 1558 1556 1554 1552 1550 1549 1547 1546 1545 1543 1542 1540 1538 1536 1533 1530 1528 1526 1523 1520 1520 1517 1514 1513 1511 1510 1510 1509 1509 1509 1509 1510 1511 1512 1513 1514 1515
1558 1556 1554 1553 1551 1549 1547 1545 1544 1542 1540 1539 1537 1535 1533 1531 1528 1525 1522 1520 1517 1515 1513 1509 1508 1506 1505 1504 1503 1503 1502 1502 1503 1503 1504 1506 1507 1508
1555 1554 1553 1551 1549 1547 1545 1543 1542 1540 1537 1536 1534 1531 1529 1526 1523 1521 1518 1515 1512 1511 1509 1506 1504 1502 1500 1498 1497 1496 1496 1495 1496 1496 1497 1498 1499 1501
1553 1552 1550 1548 1546 1544 1542 1540 1538 1536 1534 1531 1529 1526 1523 1521 1518 1516 1513 1511 1508 1506 1505 1502 1499 1496 1494 1492 1491 1489 1489 1488 1488 1489 1490 1491 1492 1493
1551 1549 1547 1545 1543 1541 1539 1537 1535 1532 1530 1527 1524 1522 1519 1517 1514 1512 1510 1507 1504 1501 1500 1497 1494 1491 1487 1486 1485 1483 1482 1481 1481 1481 1482 1483 1484 1485
1548 1547 1544 1542 1539 1537 1535 1533 1530 1528 1525 1523 1520 1517 1515 1512 1510 1507 1505 1502 1499 1496 1494 1492 1488 1486 1483 1479 1478 1477 1476 1474 1474 1474 1474 1475 1476 1477
1544 1543 1541 1538 1535 1533 1530 1528 1526 1523 1521 1518 1516 1513 1510 1507 1504 1502 1499 1496 1493 1490 1487 1486 1483 1480 1477 1473 1470 1469 1469 1468 1467 1466 1466 1467 1468 1469
1540 1538 1536 1533 1531 1528 1526 1523 1521 1519 1516 1514 1511 1508 1505 1502 1498 1495 1491 1488 1485 1483 1480 1478 1476 1473 1470 1467 1464 1462 1461 1460 1459 1459 1459 1459 1459 1460
1536 1534 1531 1528 1526 1523 1521 1519 1517 1514 1512 1509 1505 1502 1499 1496 1493 1489 1486 1482 1478 1475 1473 1471 1468 1466 1462 1459 1457 1454 1453 1452 1451 1451 1450 1450 1451 1451
1531 1529 1527 1525 1522 1520 1517 1515 1512 1510 1507 1504 1501 1497 1494 1491 1487 1484 1480 1476 1473 1468 1465 1462 1460 1457 1454 1452 1449 1446 1445 1444 1444 1443 1442 1441 1442 1442
1527 1524 1522 1520 1518 1515 1512 1510 1507 1505 1502 1499 1496 1492 1489 1485 1481 1478 1475 1471 1467 1463 1459 1456 1452 1449 1445 1443 1442 1439 1438 1436 1435 1435 1435 1433 1432 1434
1521 1519 1517 1515 1512 1510 1507 1504 1502 1499 1496 1493 1489 1486 1483 1479 1475 1472 1468 1465 1461 1457 1453 1450 1446 1443 1438 1434 1431 1433 1431 1428 1427 1427 1426 1425 1425 1425
1516 1514 1512 1509 1507 1504 1501 1498 1495 1492 1489 1486 1483 1480 1476 1473 1469 1465 1462 1458 1454 1450 1445 1442 1440 1436 1433 1428 1424 1421 1422 1421 1419 1418 1418 1417 1417 1417
1510 1508 1506 1503 1501 1498 1495 1492 1489 1486 1483 1479 1476 1473 1469 1466 1462 1458 1455 1451 1447 1443 1438 1434 1431 1429 1424 1421 1416 1412 1412 1412 1412 1411 1410 1410 1408 1408
1503 1501 1499 1496 1494 1491 1488 1485 1482 1479 1476 1472 1469 1465 1462 1458 1454 1451 1447 1444 1439 1435 1431 1426 1423 1419 1416 1412 1408 1404 1402 1402 1402 1401 1402 1402 1400 1400
1496 1494 1492 1489 1486 1484 1481 1478 1475 1471 1468 1465 1461 1458 1454 1450 1447 1443 1439 1436 1432 1427 1423 1418 1414 1410 1407 1403 1400 1397 1394 1393 1392 1392 1391 1392 1392 1393